TimeCDT,TemperatureF,Dew PointF,Humidity,Sea Level PressureIn,VisibilityMPH,Wind Direction,Wind SpeedMPH,Gust SpeedMPH,PrecipitationIn,Events,Conditions,WindDirDegrees,DateUTC
12:15 AM,34.7,34.0,97,30.41,3.0,NNW,11.5,25.3,0.04,Snow,Light Snow,330,2013-05-02 05:15:00
12:35 AM,33.8,33.1,97,30.38,3.0,North,16.1,20.7,0.08,Snow,Light Snow,350,2013-05-02 05:35:00
12:55 AM,33.4,32.9,98,30.40,2.5,North,11.5,20.7,0.12,Snow,Light Snow,350,2013-05-02 05:55:00
1:15 AM,33.3,32.9,99,30.40,2.5,North,10.4,18.4,0.01,Snow,Light Snow,350,2013-05-02 06:15:00
1:35 AM,33.1,32.5,98,30.40,1.5,North,10.4,18.4,0.04,Snow,Light Snow,350,2013-05-02 06:35:00
1:55 AM,33.1,32.5,98,30.41,1.5,NNW,11.5,17.3,0.06,Snow,Light Snow,340,2013-05-02 06:55:00
2:15 AM,32.9,32.4,98,30.40,2.0,NNW,10.4,-,0.01,Snow,Light Snow,340,2013-05-02 07:15:00
2:35 AM,33.1,32.5,98,30.39,1.2,NNW,13.8,-,0.03,Snow,Light Snow,340,2013-05-02 07:35:00
2:55 AM,33.1,32.5,98,30.39,2.5,North,12.7,18.4,0.03,Snow,Light Snow,350,2013-05-02 07:55:00
3:15 AM,33.3,32.9,99,30.39,3.0,NNW,13.8,-,N/A,Snow,Light Snow,340,2013-05-02 08:15:00
3:35 AM,33.4,32.9,98,30.41,4.0,NNW,10.4,18.4,N/A,Snow,Light Snow,340,2013-05-02 08:35:00
3:55 AM,33.8,33.3,98,30.40,4.0,North,15.0,20.7,0.01,Snow,Light Snow,350,2013-05-02 08:55:00
4:15 AM,33.8,33.3,98,30.42,4.0,North,11.5,20.7,N/A,Snow,Light Snow,350,2013-05-02 09:15:00
4:35 AM,33.8,33.1,97,30.42,2.5,North,9.2,-,0.01,Snow,Light Snow,350,2013-05-02 09:35:00
4:55 AM,33.8,33.3,98,30.43,5.0,NNW,10.4,-,0.01,Snow,Light Snow,340,2013-05-02 09:55:00
5:15 AM,33.8,33.3,98,30.43,5.0,North,9.2,16.1,N/A,Snow,Light Snow,350,2013-05-02 10:15:00
5:35 AM,34.0,33.4,98,30.43,10.0,NNW,12.7,-,N/A,,Overcast,340,2013-05-02 10:35:00
5:55 AM,34.3,33.8,98,30.45,10.0,NNW,12.7,19.6,N/A,,Overcast,340,2013-05-02 10:55:00
6:15 AM,34.2,33.8,99,30.46,10.0,NNW,12.7,-,N/A,,Overcast,340,2013-05-02 11:15:00
6:35 AM,34.3,33.8,98,30.47,10.0,NNW,11.5,-,N/A,,Overcast,340,2013-05-02 11:35:00
6:55 AM,34.7,34.0,97,30.48,10.0,North,12.7,18.4,N/A,,Overcast,350,2013-05-02 11:55:00
7:15 AM,34.7,33.8,97,30.48,10.0,North,11.5,20.7,N/A,,Overcast,350,2013-05-02 12:15:00
7:35 AM,34.7,33.4,95,30.48,10.0,North,11.5,19.6,N/A,,Overcast,350,2013-05-02 12:35:00
7:55 AM,34.9,33.1,93,30.49,10.0,NNW,9.2,17.3,N/A,,Overcast,340,2013-05-02 12:55:00
8:15 AM,35.6,32.5,89,30.49,10.0,North,10.4,16.1,N/A,,Overcast,350,2013-05-02 13:15:00
8:35 AM,36.1,32.2,86,30.50,10.0,North,10.4,18.4,N/A,,Overcast,350,2013-05-02 13:35:00
8:55 AM,36.1,32.2,86,30.50,10.0,NNW,10.4,-,N/A,,Overcast,340,2013-05-02 13:55:00
9:15 AM,36.5,32.0,84,30.50,10.0,NNW,11.5,17.3,N/A,,Mostly Cloudy,340,2013-05-02 14:15:00
9:35 AM,36.5,32.0,84,30.50,10.0,NNW,11.5,16.1,N/A,,Mostly Cloudy,340,2013-05-02 14:35:00
9:55 AM,36.7,32.0,83,30.49,10.0,North,13.8,23.0,N/A,,Overcast,350,2013-05-02 14:55:00
10:15 AM,37.0,32.0,82,30.50,10.0,North,9.2,17.3,N/A,,Overcast,350,2013-05-02 15:15:00
10:35 AM,37.4,31.8,80,30.50,10.0,North,13.8,20.7,N/A,,Overcast,350,2013-05-02 15:35:00
10:55 AM,38.3,30.9,75,30.50,10.0,North,13.8,27.6,N/A,,Overcast,350,2013-05-02 15:55:00
11:15 AM,38.7,28.9,68,30.51,10.0,North,13.8,27.6,N/A,,Overcast,350,2013-05-02 16:15:00
11:35 AM,39.4,27.7,63,30.51,10.0,North,18.4,25.3,N/A,,Overcast,350,2013-05-02 16:35:00
11:55 AM,39.7,27.3,61,30.51,10.0,North,15.0,26.5,N/A,,Overcast,350,2013-05-02 16:55:00
12:15 PM,41.0,27.9,60,30.50,10.0,North,18.4,27.6,N/A,,Overcast,350,2013-05-02 17:15:00
12:35 PM,42.1,28.0,58,30.50,10.0,North,19.6,29.9,N/A,,Overcast,360,2013-05-02 17:35:00
12:55 PM,42.3,29.1,60,30.50,10.0,North,19.6,27.6,N/A,,Overcast,350,2013-05-02 17:55:00
1:15 PM,42.1,26.6,54,30.49,10.0,North,19.6,29.9,N/A,,Overcast,350,2013-05-02 18:15:00
1:35 PM,43.0,28.0,56,30.48,10.0,North,18.4,28.8,N/A,,Mostly Cloudy,350,2013-05-02 18:35:00
1:55 PM,43.3,28.2,55,30.48,10.0,NNW,19.6,27.6,N/A,,Overcast,340,2013-05-02 18:55:00
2:15 PM,43.7,26.1,50,30.48,10.0,North,16.1,27.6,N/A,,Overcast,350,2013-05-02 19:15:00
2:35 PM,44.1,29.1,56,30.48,10.0,NNW,18.4,26.5,N/A,,Overcast,340,2013-05-02 19:35:00
2:55 PM,44.8,30.0,56,30.47,10.0,NNW,17.3,26.5,N/A,,Overcast,340,2013-05-02 19:55:00
3:15 PM,44.6,27.5,51,30.47,10.0,North,18.4,32.2,N/A,,Overcast,350,2013-05-02 20:15:00
3:35 PM,44.8,29.1,54,30.46,10.0,North,15.0,26.5,N/A,,Overcast,350,2013-05-02 20:35:00
3:55 PM,46.0,28.0,50,30.46,10.0,North,19.6,25.3,N/A,,Mostly Cloudy,350,2013-05-02 20:55:00
4:15 PM,45.5,27.5,49,30.45,10.0,North,15.0,23.0,N/A,,Mostly Cloudy,350,2013-05-02 21:15:00
4:35 PM,45.3,29.8,55,30.44,10.0,North,11.5,24.2,N/A,,Scattered Clouds,350,2013-05-02 21:35:00
4:55 PM,45.5,29.1,53,30.44,10.0,North,16.1,23.0,N/A,,Mostly Cloudy,360,2013-05-02 21:55:00
5:15 PM,46.0,29.7,53,30.45,10.0,North,12.7,18.4,N/A,,Overcast,360,2013-05-02 22:15:00
5:35 PM,46.4,30.4,54,30.44,10.0,North,11.5,19.6,N/A,,Overcast,360,2013-05-02 22:35:00
5:55 PM,46.8,31.1,55,30.43,10.0,North,9.2,19.6,N/A,,Mostly Cloudy,360,2013-05-02 22:55:00
6:15 PM,47.1,31.5,55,30.43,10.0,North,10.4,-,N/A,,Scattered Clouds,360,2013-05-02 23:15:00
6:35 PM,46.8,31.5,55,30.43,10.0,North,8.1,-,N/A,,Scattered Clouds,360,2013-05-02 23:35:00
6:55 PM,46.9,31.8,56,30.42,10.0,North,8.1,-,N/A,,Scattered Clouds,360,2013-05-02 23:55:00
7:15 PM,46.8,31.5,55,30.42,10.0,North,8.1,-,N/A,,Clear,10,2013-05-03 00:15:00
7:35 PM,46.4,31.8,57,30.41,10.0,North,10.4,-,N/A,,Clear,360,2013-05-03 00:35:00
7:55 PM,45.5,32.0,59,30.41,10.0,North,9.2,-,N/A,,Clear,10,2013-05-03 00:55:00
8:15 PM,44.8,32.0,61,30.41,10.0,NNE,6.9,-,N/A,,Clear,20,2013-05-03 01:15:00
8:35 PM,43.7,32.0,63,30.40,10.0,North,5.8,-,N/A,,Clear,10,2013-05-03 01:35:00
8:55 PM,43.3,32.0,64,30.40,10.0,North,5.8,-,N/A,,Clear,10,2013-05-03 01:55:00
9:15 PM,44.2,30.4,58,30.40,10.0,North,5.8,-,N/A,,Clear,360,2013-05-03 02:15:00
9:35 PM,43.7,29.7,58,30.40,10.0,North,9.2,-,N/A,,Clear,360,2013-05-03 02:35:00
9:55 PM,43.3,29.3,58,30.40,10.0,North,9.2,-,N/A,,Clear,360,2013-05-03 02:55:00
10:15 PM,43.2,28.8,57,30.39,10.0,North,6.9,-,N/A,,Clear,350,2013-05-03 03:15:00
10:35 PM,42.8,28.4,57,30.39,10.0,North,6.9,-,N/A,,Clear,350,2013-05-03 03:35:00
10:55 PM,41.9,28.9,60,30.39,10.0,North,9.2,-,N/A,,Clear,350,2013-05-03 03:55:00
11:15 PM,41.2,28.9,62,30.38,10.0,North,8.1,-,N/A,,Clear,350,2013-05-03 04:15:00
11:35 PM,41.0,28.6,61,30.38,10.0,North,8.1,-,N/A,,Clear,350,2013-05-03 04:35:00
11:55 PM,41.0,28.2,60,30.38,10.0,North,8.1,-,N/A,,Clear,350,2013-05-03 04:55:00